Estación de Negrete
Ultimos registro cada 15 minutos 70
| N° | Estación | Fecha / Hora | Temperatura | Humedad | Lluvia | Velocidad | Dirección | Radiación | Presion |
| 70 | Negrete | 10-05-2026 17:15 | 16,3 | 61,6 | 0 | 1,5 | 163 | 15,6 | 1004,6 |
| 69 | Negrete | 10-05-2026 17:00 | 16,7 | 59,2 | 0 | 1,5 | 167 | 21,9 | 1004,6 |
| 68 | Negrete | 10-05-2026 16:45 | 17 | 59,8 | 0 | 1,5 | 175 | 20,6 | 1004,4 |
| 67 | Negrete | 10-05-2026 16:30 | 17,5 | 58,5 | 0 | 1,5 | 168 | 28,1 | 1004,3 |
| 66 | Negrete | 10-05-2026 16:15 | 17,8 | 55,1 | 0 | 1,5 | 164 | 199,4 | 1004,3 |
| 65 | Negrete | 10-05-2026 16:00 | 18,4 | 54,3 | 0 | 1,5 | 163 | 34,4 | 1004,4 |
| 64 | Negrete | 10-05-2026 15:45 | 18,4 | 53,5 | 0 | 1 | 154 | 150,6 | 1004,4 |
| 63 | Negrete | 10-05-2026 15:30 | 18,3 | 53,4 | 0 | 1,5 | 156 | 376,9 | 1004,5 |
| 62 | Negrete | 10-05-2026 15:15 | 18,1 | 52,2 | 0 | 1,5 | 154 | 304,4 | 1004,6 |
| 61 | Negrete | 10-05-2026 15:00 | 18,2 | 53 | 0 | 1 | 147 | 444,4 | 1004,7 |
| 60 | Negrete | 10-05-2026 14:45 | 18,1 | 54,4 | 0 | 1,5 | 167 | 471,9 | 1004,8 |
| 59 | Negrete | 10-05-2026 14:30 | 17,6 | 53,2 | 0 | 1,5 | 167 | 498,1 | 1004,9 |
| 58 | Negrete | 10-05-2026 14:15 | 17,5 | 54,6 | 0 | 1 | 170 | 521,9 | 1004,9 |
| 57 | Negrete | 10-05-2026 14:00 | 17 | 53 | 0 | 1,5 | 163 | 540,6 | 1005,1 |
| 56 | Negrete | 10-05-2026 13:45 | 17,3 | 53,4 | 0 | 1 | 157 | 553,1 | 1005,2 |
| 55 | Negrete | 10-05-2026 13:30 | 17,1 | 53,3 | 0 | 1,5 | 159 | 568,1 | 1005,4 |
| 54 | Negrete | 10-05-2026 13:15 | 17,2 | 52,8 | 0 | 1 | 161 | 576,9 | 1005,6 |
| 53 | Negrete | 10-05-2026 13:00 | 16,6 | 53,1 | 0 | 1 | 150 | 584,4 | 1005,7 |
| 52 | Negrete | 10-05-2026 12:45 | 16,8 | 52,5 | 0 | 1 | 163 | 586,9 | 1006,2 |
| 51 | Negrete | 10-05-2026 12:30 | 16,2 | 51,7 | 0 | 1 | 143 | 584,4 | 1006,4 |
| 50 | Negrete | 10-05-2026 12:15 | 15,9 | 53,9 | 0 | 0,5 | 143 | 580,6 | 1006,6 |
| 49 | Negrete | 10-05-2026 12:00 | 15,3 | 54,4 | 0 | 1 | 149 | 569,4 | 1006,8 |
| 48 | Negrete | 10-05-2026 11:45 | 15 | 53,6 | 0 | 1 | 152 | 558,1 | 1007 |
| 47 | Negrete | 10-05-2026 11:30 | 14,4 | 54,4 | 0 | 1 | 149 | 540,6 | 1007 |
| 46 | Negrete | 10-05-2026 11:15 | 14,3 | 56,2 | 0 | 1 | 146 | 520,6 | 1007,3 |
| 45 | Negrete | 10-05-2026 11:00 | 13,6 | 57 | 0 | 1 | 161 | 258,1 | 1007,5 |
| 44 | Negrete | 10-05-2026 10:45 | 14 | 55 | 0 | 0,5 | 154 | 471,9 | 1007,8 |
| 43 | Negrete | 10-05-2026 10:30 | 13,3 | 54 | 0 | 1 | 150 | 443,1 | 1007,8 |
| 42 | Negrete | 10-05-2026 10:15 | 13,1 | 56 | 0 | 1 | 157 | 380,6 | 1007,8 |
| 41 | Negrete | 10-05-2026 10:00 | 12,2 | 55,8 | 0 | 1 | 139 | 34,4 | 1007,8 |
| 40 | Negrete | 10-05-2026 09:45 | 12,3 | 55,1 | 0 | 1 | 135 | 225,6 | 1007,9 |
| 39 | Negrete | 10-05-2026 09:30 | 11,8 | 55,3 | 0 | 1 | 146 | 281,9 | 1007,9 |
| 38 | Negrete | 10-05-2026 09:15 | 10,9 | 57,9 | 0 | 1 | 140 | 186,9 | 1008 |
| 37 | Negrete | 10-05-2026 09:00 | 10,3 | 59,7 | 0 | 0,5 | 147 | 21,9 | 1008,2 |
| 36 | Negrete | 10-05-2026 08:45 | 10,1 | 58,8 | 0 | 0,5 | 161 | 20,6 | 1008,3 |
| 35 | Negrete | 10-05-2026 08:30 | 9,7 | 59,5 | 0 | 1 | 150 | 15,6 | 1008,1 |
| 34 | Negrete | 10-05-2026 08:15 | 9,3 | 61,7 | 0 | 1 | 156 | 13,1 | 1008 |
| 33 | Negrete | 10-05-2026 08:00 | 9,1 | 62,2 | 0 | 1 | 147 | 8,1 | 1008,1 |
| 32 | Negrete | 10-05-2026 07:45 | 9 | 61,9 | 0 | 1 | 157 | 4,4 | 1008 |
| 31 | Negrete | 10-05-2026 07:30 | 9,2 | 61,7 | 0 | 1,5 | 154 | 0,6 | 1008 |
| 30 | Negrete | 10-05-2026 07:15 | 9,2 | 61,1 | 0 | 1,5 | 147 | 0,6 | 1008,1 |
| 29 | Negrete | 10-05-2026 07:00 | 8,9 | 62,9 | 0 | 1,5 | 147 | 0,6 | 1008,2 |
| 28 | Negrete | 10-05-2026 06:45 | 9,2 | 62,5 | 0 | 1,5 | 152 | 0,6 | 1008,2 |
| 27 | Negrete | 10-05-2026 06:30 | 9,2 | 62,1 | 0 | 1,5 | 154 | 0,6 | 1008,1 |
| 26 | Negrete | 10-05-2026 06:15 | 9,3 | 62 | 0 | 1,5 | 147 | 0,6 | 1008,2 |
| 25 | Negrete | 10-05-2026 06:00 | 9,1 | 62,7 | 0 | 1 | 135 | 0,6 | 1008,1 |
| 24 | Negrete | 10-05-2026 05:45 | 9 | 63,8 | 0 | 1 | 131 | 0,6 | 1008,1 |
| 23 | Negrete | 10-05-2026 05:30 | 8,9 | 64,5 | 0 | 1 | 129 | 0,6 | 1008,2 |
| 22 | Negrete | 10-05-2026 05:15 | 8,8 | 64,7 | 0 | 0,5 | 125 | 0,6 | 1008 |
| 21 | Negrete | 10-05-2026 05:00 | 8,7 | 65,9 | 0 | 0,5 | 131 | 0,6 | 1008 |
| 20 | Negrete | 10-05-2026 04:45 | 8,9 | 65,7 | 0 | 0,5 | 136 | 0,6 | 1008 |
| 19 | Negrete | 10-05-2026 04:30 | 9,1 | 64,8 | 0 | 1 | 133 | 0,6 | 1007,9 |
| 18 | Negrete | 10-05-2026 04:15 | 9,1 | 65,2 | 0 | 1 | 140 | 0,6 | 1008 |
| 17 | Negrete | 10-05-2026 04:00 | 9,1 | 65,3 | 0 | 1 | 145 | 0,6 | 1008,3 |
| 16 | Negrete | 10-05-2026 03:45 | 9,2 | 65,6 | 0 | 1,5 | 156 | 0,6 | 1008,4 |
| 15 | Negrete | 10-05-2026 03:30 | 9,1 | 66,3 | 0 | 1,5 | 157 | 0,6 | 1008,5 |
| 14 | Negrete | 10-05-2026 03:15 | 9,1 | 67,1 | 0 | 1 | 153 | 0,6 | 1008,9 |
| 13 | Negrete | 10-05-2026 03:00 | 9,2 | 67,4 | 0 | 1 | 145 | 0,6 | 1008,8 |
| 12 | Negrete | 10-05-2026 02:45 | 9,2 | 67,8 | 0 | 1 | 150 | 0,6 | 1009 |
| 11 | Negrete | 10-05-2026 02:30 | 9,3 | 67,2 | 0 | 1 | 150 | 0,6 | 1009,1 |
| 10 | Negrete | 10-05-2026 02:15 | 9,3 | 67,7 | 0 | 1 | 152 | 0,6 | 1009,1 |
| 9 | Negrete | 10-05-2026 02:00 | 9,6 | 66,3 | 0 | 1 | 149 | 0,6 | 1009,2 |
| 8 | Negrete | 10-05-2026 01:45 | 9,7 | 65,3 | 0 | 1 | 157 | 0,6 | 1009,3 |
| 7 | Negrete | 10-05-2026 01:30 | 9,8 | 64,5 | 0 | 1 | 164 | 0,6 | 1009,3 |
| 6 | Negrete | 10-05-2026 01:15 | 9,9 | 64,8 | 0 | 1 | 160 | 0,6 | 1009,3 |
| 5 | Negrete | 10-05-2026 01:00 | 9,8 | 64,4 | 0 | 1 | 159 | 0,6 | 1009,4 |
| 4 | Negrete | 10-05-2026 00:45 | 10,1 | 62,8 | 0 | 1 | 156 | 0,6 | 1009,4 |
| 3 | Negrete | 10-05-2026 00:30 | 10,2 | 62,4 | 0 | 1 | 161 | 0,6 | 1009,8 |
| 2 | Negrete | 10-05-2026 00:15 | 10,3 | 61,8 | 0 | 1 | 157 | 0,6 | 1009,7 |
| 1 | Negrete | 10-05-2026 00:00 | 10,2 | 62,5 | 0 | 1 | 157 | 0,6 | 1010 |